Miscellaneous Local Product
Issued by NWS North Platte, NE

Home | Current Version | Previous Version | Text Only | Print | Product List | Glossary On
Versions: 1 2 3 4 5 6 7 8 9 10 11 12 13 14 15 16 17 18 19 20 21 22 23 24 25 26 27 28 29 30 31 32 33 34 35 36 37 38 39 40 41 42 43 44 45 46 47 48 49 50
000
AXUS43 KLBF 022310
MISLBF


WESTERN AND NORTH CENTRAL NEBRASKA HOURLY WEATHER ROUNDUP
NATIONAL WEATHER SERVICE NORTH PLATTE NE
600 PM CDT SAT MAY 02 2015

***STATIONS NOT REPORTING VARIABLES SUCH AS SKY/WEATHER OR
PRESSURE ARE PROVIDED BY THE NEBRASKA DEPARTMENT OF
ROADS...RAWS...AND APRS NETWORKS...AND ARE NOT UNDER
NATIONAL WEATHER SERVICE QUALITY CONTROL***

...OBSERVATIONS IN AND NEAR THE EASTERN PANHANDLE OF NEBRASKA...

CITY           SKY/WX    TMP DP  RH WIND       PRES   REMARKS
PINE RIDGE     SUNNY     82  22  11 W18       29.71F
CHADRON        SUNNY     81  29  15 NW17      29.71F
ALLIANCE       SUNNY     80  33  18 NW9G21    29.76F
SIDNEY         PTSUNNY   73  41  31 W12       29.84S
BIG SPRINGS      N/A     83  30  15 SW5         N/A
$$

...OBSERVATIONS IN NORTH CENTRAL NEBRASKA...

CITY           SKY/WX    TMP DP  RH WIND       PRES   REMARKS
THEDFORD       MOSUNNY   86  34  15 W15G25    29.72S
AINSWORTH      MOSUNNY   83  46  27 SW5       29.70F
O`NEILL        SUNNY     83  48  29 SW8       29.73S
ORD            SUNNY     82  45  27 SW12      29.69F
BROKEN BOW     MOSUNNY   88  40  18 SW17G24   29.71F
SPRINGVIEW       N/A     85  49  28 SW12        N/A
SARGENT          N/A     82  47  29 SW8G16      N/A
COMSTOCK         N/A     91  49  23 S13         N/A
$$

...OBSERVATIONS IN SOUTHWEST NEBRASKA AND FAR NORTHEAST COLORADO...

CITY           SKY/WX    TMP DP  RH WIND       PRES   REMARKS
WRAY           FAIR      81  34  18 W8        29.82R
IMPERIAL       CLOUDY    82  33  17 W7        29.78S
OGALLALA       PTSUNNY   81  31  16 SW6       29.77S
NORTH PLATTE   MOSUNNY   81  42  25 W13       29.73S
MCCOOK         PTSUNNY   86  35  16 SW7G18    29.74S
LEXINGTON      MOSUNNY   82  47  30 S14       29.73S
PAXTON           N/A     84  34  17 NW8         N/A
CALLAWAY         N/A     85  50  29 SW16        N/A
$$

...NORTH PLATTE AREA...

CITY           SKY/WX    TMP DP  RH WIND       PRES   REMARKS
AIRPORT        MOSUNNY   81  42  25 W13       29.73S
DOWNTOWN         N/A     86  39  18 W5G14       N/A
$$

...SOME WEATHER OBSERVATIONS FROM AROUND THE REGION...

CITY           SKY/WX    TMP DP  RH WIND       PRES   REMARKS
DENVER         CLOUDY    65  42  43 E7        29.92F
LARAMIE        CLOUDY    53  34  48 S20       30.02R
CHEYENNE       LGT RAIN  57  40  52 W32G40    29.97R
SCOTTSBLUFF    MOSUNNY   82  33  17 W10       29.77F
RAPID CITY     PTSUNNY   80  31  16 N20G28    29.70S
PIERRE         PTSUNNY   85  37  18 S14G22    29.60F
WINNER         FAIR      85  37  18 S12       29.67F
SIOUX FALLS    MOSUNNY   77  48  35 S16G23    29.74F
OMAHA          SUNNY     72  57  59 S21       29.81F
GRAND ISLAND   SUNNY     85  46  25 S10       29.73F
KANSAS CITY    MOSUNNY   74  54  49 S17       29.90F
WICHITA        MOSUNNY   81  52  36 S25G33    29.86F
HAYS           MOSUNNY   86  45  23 S17G29    29.76F
LIBERAL        PTSUNNY   82  41  23 S17       29.83F
GOODLAND       PTSUNNY   80  49  33 S13       29.81S
$$



USA.gov is the U.S. government's official web portal to all federal, state and local government web resources and services.